Location: Alafon
(8.4500°N, 4.2333°E)
Time: 01:52:43
(UTC+00:00)

Cosmos 2058 Rocket - Pass Details

Date: 05 July 2020
Orbit: 610 x 639 km, 82.5° (Epoch: 06 August)

Event Time Altitude Azimuth Distance (km) Brightness Sun altitude
Rises 19:25:23 0° 10° (N) 2,915 6.7 -18.7°
Reaches altitude 10° 19:27:47 10° 19° (NNE) 2,004 5.8 -19.2°
Enters shadow 19:31:15 33° 68° (ENE) 1,052 3.9 -20.0°
